Stations météo

réclame
Mon MeteoGroup
Lossiemouth, Grande-Bretagne (3068): Température de l'air & dewpoint: 13.07.2018 14:00:00 - 19.07.2018 14:00:00 (BST)Lossiemouth, Grande-Bretagne (3068): Vitesse du vent: 13.07.2018 14:00:00 - 19.07.2018 14:00:00 (BST)Lossiemouth, Grande-Bretagne (3068): Direction du vent: 13.07.2018 14:00:00 - 19.07.2018 14:00:00 (BST)Lossiemouth, Grande-Bretagne (3068): reduced air pressure: 13.07.2018 14:00:00 - 19.07.2018 14:00:00 (BST)Lossiemouth, Grande-Bretagne (3068): visibility: 13.07.2018 14:00:00 - 19.07.2018 14:00:00 (BST)Lossiemouth, Grande-Bretagne (3068): Quantités de précipitations: 13.07.2018 14:00:00 - 19.07.2018 14:00:00 (BST)
Date & Time tt [°C] td [°C] ff [km/h] ff [knt] dd ppp [hPa] vv [km] rr [mm]
19.07.2018 14:00:00 19,3 7,9 18 10 NW 1016,6 10 0,0
19.07.2018 13:00:00 19,4 9,4 21 11 NW 1016,8 10 0,0
19.07.2018 12:00:00 18,7 8,1 22 12 WNW 1017,1 10 0,0
19.07.2018 11:00:00 18,6 7,7 21 11 WNW 1017,2 10 0,0
19.07.2018 10:00:00 17,4 9,4 16 9 WNW 1017,8 10 0,0
19.07.2018 09:00:00 16,8 8,0 15 8 WSW 1018,2 10 0,0
19.07.2018 08:00:00 14,9 7,8 16 9 WSW 1018,3 10 0,0
19.07.2018 07:00:00 11,3 9,7 8 4 S 1018,6 10 0,0
19.07.2018 06:00:00 9,8 9,0 5 3 SSW 1018,6 10 0,0
19.07.2018 05:00:00 8,8 8,3 8 4 SSW 1018,4 10 0,0
19.07.2018 04:00:00 11,4 9,5 4 2 SSW 1018,4 10 0,0
19.07.2018 03:00:00 12,5 10,0 9 5 SSE 1018,7 10 0,0
19.07.2018 02:00:00 13,4 9,6 9 5 ESE 1018,8 10 0,0
19.07.2018 01:00:00 12,8 8,7 5 3 ESE 1019,0 10 0,0
19.07.2018 00:00:00 12,5 8,1 2 1 S 1019,2 10 0,0
18.07.2018 23:00:00 13,2 7,2 4 2 E 1018,9 10 0,0
18.07.2018 22:00:00 15,3 6,6 8 4 ESE 1018,8 10 0,0
18.07.2018 21:00:00 16,2 7,0 9 5 ESE 1018,7 10 0,0
18.07.2018 20:00:00 16,8 7,1 5 3 E 1018,5 10 0,0
18.07.2018 19:00:00 17,0 6,2 11 6 NE 1018,3 10 0,0
18.07.2018 18:00:00 18,3 6,3 11 6 NE 1018,1 10 0,0
18.07.2018 17:00:00 17,5 7,0 11 6 N 1018,1 10 0,0
18.07.2018 16:00:00 17,3 7,4 11 6 N 1018,0 10 0,0
18.07.2018 15:00:00 17,0 7,6 9 5 NW 1017,7 10 0,0
18.07.2018 14:00:00 17,3 8,6 16 9 NW 1017,3 10 0,0
18.07.2018 13:00:00 16,0 8,7 13 7 WNW 1016,9 10 0,0
18.07.2018 12:00:00 16,7 8,5 11 6 NW 1016,5 10 0,0
18.07.2018 11:00:00 15,6 8,9 11 6 W 1016,4 10 0,0
18.07.2018 10:00:00 15,3 9,9 11 6 W 1016,3 10 0,0
18.07.2018 09:00:00 14,2 9,6 11 6 W 1016,2 10 0,0
18.07.2018 08:00:00 13,9 10,3 16 9 WSW 1015,9 10 0,0
18.07.2018 07:00:00 12,1 9,9 8 4 SSW 1015,5 10 0,0
18.07.2018 06:00:00 11,2 10,4 4 2 S 1015,1 10 0,0
18.07.2018 05:00:00 11,2 10,8 8 4 SSW 1014,8 10 0,0
18.07.2018 04:00:00 11,5 11,3 5 3 SW 1014,7 10 0,2
18.07.2018 03:00:00 10,5 10,4 8 4 SW 1014,6 10 0,0
18.07.2018 02:00:00 10,2 10,0 9 5 WSW 1014,4 10 0,0
18.07.2018 01:00:00 10,6 10,1 5 3 W 1014,4 10 0,0
18.07.2018 00:00:00 12,9 11,5 9 5 NNE 1014,4 10 0,0
17.07.2018 23:00:00 13,4 12,2 9 5 WNW 1013,8 10 0,0
17.07.2018 22:00:00 13,7 12,5 5 3 W 1013,4 10 0,0
17.07.2018 21:00:00 14,5 13,0 11 6 SSW 1013,2 10 0,0
17.07.2018 20:00:00 14,4 13,0 11 6 SSE 1012,8 10 0,2
17.07.2018 19:00:00 14,0 12,8 8 4 S 1012,8 10 1,0
17.07.2018 18:00:00 15,1 12,9 4 2 ESE 1012,6 7 1,2
17.07.2018 17:00:00 15,9 11,5 11 6 NNW 1012,2 10 0,0
17.07.2018 16:00:00 17,2 9,1 11 6 NW 1012,0 10 0,0
17.07.2018 15:00:00 15,1 11,7 11 6 WSW 1012,1 10 0,0
17.07.2018 14:00:00 16,2 9,6 13 7 N 1011,7 10 0,0
17.07.2018 13:00:00 18,3 8,0 13 7 NNE 1011,5 10 0,0
17.07.2018 12:00:00 16,8 8,7 11 6 NNW 1011,8 10 0,0
17.07.2018 11:00:00 16,7 8,8 11 6 W 1011,7 10 0,0
17.07.2018 10:00:00 16,8 9,6 13 7 W 1011,7 10 0,0
17.07.2018 09:00:00 16,6 9,2 18 10 WSW 1011,8 10 0,0
17.07.2018 08:00:00 14,5 8,5 11 6 WSW 1011,4 10 0,0
17.07.2018 07:00:00 13,2 10,0 4 2 S 1011,4 10 0,0
17.07.2018 06:00:00 10,9 8,6 4 2 S 1011,5 10 0,0
17.07.2018 05:00:00 11,2 8,0 5 3 SSW 1011,2 70 0,0
17.07.2018 04:00:00 11,6 8,4 2 1 ENE 1011,3 10 0,0
17.07.2018 03:00:00 11,1 8,3 8 4 SSW 1011,7 10 0,0
17.07.2018 02:00:00 11,8 8,7 8 4 SSW 1011,8 10 0,0
17.07.2018 01:00:00 13,5 8,2 11 6 WSW 1011,9 10 0,0
17.07.2018 00:00:00 12,8 9,3 11 6 WSW 1011,9 10 0,0
16.07.2018 23:00:00 14,7 9,9 13 7 W 1011,6 10 0,0
16.07.2018 22:00:00 16,6 9,8 13 7 W 1011,4 10 0,0
16.07.2018 21:00:00 17,5 8,4 16 9 W 1011,0 10 0,0
16.07.2018 20:00:00 18,0 9,1 13 7 WNW 1010,8 10 0,0
16.07.2018 19:00:00 18,7 10,0 11 6 WNW 1010,6 10 0,0
16.07.2018 18:00:00 18,0 13,9 13 7 ESE 1010,6 10 0,0
16.07.2018 17:00:00 16,7 13,4 16 9 E 1010,5 10 0,0
16.07.2018 16:00:00 18,3 12,1 15 8 E 1010,4 10 0,0
16.07.2018 15:00:00 17,7 11,4 16 9 E 1010,7 10 0,0
16.07.2018 14:00:00 17,0 12,7 15 8 E 1010,8 10 0,0
16.07.2018 13:00:00 15,8 12,7 11 6 ENE 1010,9 10 0,0
16.07.2018 12:00:00 16,3 13,0 5 3 NNE 1010,9 10 0,0
16.07.2018 11:00:00 15,6 13,6 5 3 SSW 1010,7 10 0,6
16.07.2018 10:00:00 14,2 13,0 21 11 W 1010,7 3,2 0,2
16.07.2018 09:00:00 15,1 13,9 5 3 WNW 1010,4 10 0,0
16.07.2018 08:00:00 14,7 13,9 9 5 W 1010,1 20 0,4
16.07.2018 07:00:00 14,2 13,8 11 6 WNW 1009,8 4,0 0,2
16.07.2018 06:00:00 14,4 13,5 16 9 W 1009,7 4,0 0,4
16.07.2018 05:00:00 17,5 15,1 8 4 SW 1008,8 10 0,0
16.07.2018 04:00:00 16,8 15,1 8 4 SSW 1008,8 10 0,0
16.07.2018 03:00:00 17,9 14,8 9 5 S 1008,8 10 0,0
16.07.2018 02:00:00 17,7 15,0 9 5 S 1009,2 10 0,0
16.07.2018 01:00:00 18,3 15,1 9 5 S 1009,4 10 0,0
16.07.2018 00:00:00 18,7 15,2 9 5 SSE 1009,5 10 0,0
15.07.2018 23:00:00 18,6 15,1 9 5 SSW 1009,8 10 0,0
15.07.2018 22:00:00 19,1 16,7 5 3 WSW 1010,0 10 0,0
15.07.2018 21:00:00 19,4 17,5 4 2 NW 1009,9 10 0,0
15.07.2018 20:00:00 19,7 17,5 2 1 E 1009,9 30 0,0
15.07.2018 19:00:00 19,3 17,5 9 5 E 1010,2 10 0,6
15.07.2018 18:00:00 19,2 16,6 4 2 ENE 1010,4 10 0,0
15.07.2018 17:00:00 19,4 16,4 8 4 E 1010,5 10 0,0
15.07.2018 16:00:00 19,0 16,5 11 6 E 1010,8 10 0,0
15.07.2018 15:00:00 18,7 16,7 8 4 NNW 1011,0 10 0,0
15.07.2018 14:00:00 19,4 16,4 5 3 NW 1011,2 10 0,0
15.07.2018 13:00:00 22,2 14,2 21 11 SW 1010,8 10 0,0
15.07.2018 12:00:00 22,7 14,8 13 7 SW 1010,9 10 0,0
15.07.2018 11:00:00 22,4 14,5 15 8 SW 1010,9 10 0,0
15.07.2018 10:00:00 20,9 14,8 13 7 SW 1011,2 10 0,0
15.07.2018 09:00:00 20,6 14,6 16 9 SSW 1011,0 10 0,0
15.07.2018 08:00:00 19,7 14,8 8 4 SW 1011,2 10 0,0
15.07.2018 07:00:00 19,2 14,4 9 5 SW 1011,1 10 0,0
15.07.2018 06:00:00 18,3 14,3 13 7 S 1011,1 10 0,0
15.07.2018 05:00:00 17,9 14,1 13 7 S 1011,0 10 0,0
15.07.2018 04:00:00 17,9 13,8 9 5 S 1011,4 10 0,0
15.07.2018 03:00:00 17,6 13,6 5 3 S 1011,7 10 0,0
15.07.2018 02:00:00 18,0 13,4 11 6 SSW 1011,9 10 0,0
15.07.2018 01:00:00 17,5 13,2 9 5 SSW 1012,1 10 0,0
15.07.2018 00:00:00 17,7 12,9 11 6 SSW 1012,4 10 0,0
14.07.2018 23:00:00 18,5 13,0 8 4 SSW 1012,7 10 0,0
14.07.2018 22:00:00 19,8 13,2 11 6 SW 1012,7 10 0,0
14.07.2018 21:00:00 20,6 13,2 15 8 WSW 1012,4 10 0,0
14.07.2018 20:00:00 20,6 12,8 16 9 W 1012,5 10 0,0
14.07.2018 19:00:00 21,6 12,3 15 8 W 1012,5 10 0,0
14.07.2018 18:00:00 21,4 11,9 18 10 W 1012,7 10 0,0
14.07.2018 17:00:00 23,3 12,0 18 10 SW 1012,8 10 0,0
14.07.2018 16:00:00 22,3 11,5 13 7 W 1013,0 10 0,0
14.07.2018 15:00:00 22,4 11,1 21 11 W 1013,3 10 0,0
14.07.2018 14:00:00 23,1 11,0 18 10 W 1013,6 10 0,0
14.07.2018 13:00:00 22,5 10,1 18 10 SSW 1013,9 10 0,0
14.07.2018 12:00:00 21,8 10,7 21 11 WSW 1014,5 10 0,0
14.07.2018 11:00:00 21,2 10,2 18 10 WSW 1014,7 10 0,0
14.07.2018 10:00:00 20,0 10,1 24 13 SW 1015,1 10 0,0
14.07.2018 09:00:00 19,1 9,8 24 13 SW 1015,4 10 0,0
14.07.2018 08:00:00 17,7 9,9 21 11 SSW 1015,5 10 0,0
14.07.2018 07:00:00 15,0 10,6 9 5 SSW 1016,1 10 0,0
14.07.2018 06:00:00 13,5 10,1 9 5 SSW 1016,4 10 0,0
14.07.2018 05:00:00 11,7 9,2 9 5 SSW 1016,8 10 0,0
14.07.2018 04:00:00 11,2 9,5 2 1 SW 1017,4 10 0,0
14.07.2018 03:00:00 11,3 9,6 2 1 SE 1017,6 10 0,0
14.07.2018 02:00:00 11,7 9,7 8 4 W 1018,2 10 0,0
14.07.2018 01:00:00 12,6 10,4 11 6 WSW 1018,4 10 0,0
14.07.2018 00:00:00 13,9 11,8 13 7 SW 1018,6 10 0,0
13.07.2018 23:00:00 14,5 11,8 8 4 SSW 1018,6 10 0,0
13.07.2018 22:00:00 16,7 11,9 4 2 SSW 1018,7 60 0,0
13.07.2018 21:00:00 18,4 11,4 5 3 E 1018,5 10 0,0
13.07.2018 20:00:00 18,7 11,4 11 6 E 1018,6 10 0,0
13.07.2018 19:00:00 19,5 11,6 11 6 E 1018,9 10 0,0
13.07.2018 18:00:00 19,7 11,5 9 5 ENE 1019,2 10 0,0
13.07.2018 17:00:00 19,3 12,5 9 5 ENE 1019,5 10 0,0
13.07.2018 16:00:00 19,4 12,0 9 5 NE 1020,1 10 0,0
13.07.2018 15:00:00 18,5 12,2 8 4 NE 1020,4 10 0,0
13.07.2018 14:00:00 18,3 12,5 13 7 N 1020,7 10 0,0

tt = Température de l'air
td = dewpoint
ff = Vitesse du vent
dd = Direction du vent
ppp = reduced air pressure
vv = visibility
rr = Quantités de précipitations

stations d'obs. à proximité